Location: Aulus
(42.7909°N, 1.3399°E)
Time: 07:48:09
(UTC+00:00)

deb Kosmos- 1980 - Pass Details

Date: 19 October 2025
Orbit: 834 x 854 km, 71.0° (Epoch: 17 November)

Event Time Altitude Azimuth Distance (km) Brightness Sun altitude
Rises 20:55:41 0° 324° (NW) 3,396 ? -41.8°
Reaches altitude 10° 20:58:27 10° 313° (NW) 2,455 ? -42.3°
Enters shadow 21:00:15 18° 299° (WNW) 1,945 ? -42.5°
